EN

Hourly Weather La Chapelle-Montbrandeix

Today, 24 July, Saturday

Time Temperature Precipitation Wind Pressure Humidity
00:00 +16°C° 0.1 mm 1 mps 728 mmHg 96%
01:00 +16°C° 0 mm 1 mps 728 mmHg 96%
02:00 +15°C° 0 mm 1 mps 728 mmHg 97%
03:00 +15°C° 0 mm 1 mps 728 mmHg 97%
04:00 +16°C° 0 mm 1 mps 728 mmHg 95%
05:00 +16°C° 0 mm 1 mps 728 mmHg 93%
06:00 +16°C° 0 mm 1 mps 728 mmHg 92%
07:00 +19°C° 0 mm 1 mps 728 mmHg 84%
08:00 +19°C° 0 mm 2 mps 729 mmHg 77%
09:00 +20°C° 0 mm 2 mps 729 mmHg 69%
10:00 +21°C° 0.3 mm 2 mps 729 mmHg 66%
11:00 +23°C° 0.3 mm 2 mps 729 mmHg 64%
12:00 +24°C° 0.3 mm 3 mps 728 mmHg 61%
13:00 +24°C° 0.1 mm 3 mps 728 mmHg 59%
14:00 +24°C° 0.1 mm 3 mps 728 mmHg 57%
15:00 +24°C° 0.1 mm 3 mps 728 mmHg 55%
16:00 +22°C° 0 mm 3 mps 728 mmHg 57%
17:00 +22°C° 0 mm 3 mps 728 mmHg 59%
18:00 +21°C° 0 mm 3 mps 728 mmHg 61%
19:00 +19°C° 0 mm 2 mps 728 mmHg 70%
20:00 +17°C° 0 mm 2 mps 728 mmHg 80%
21:00 +15°C° 0 mm 1 mps 729 mmHg 89%
22:00 +15°C° 0 mm 1 mps 728 mmHg 91%
23:00 +15°C° 0 mm 1 mps 728 mmHg 93%

Tomorrow, 25 July, Sunday

Time Temperature Precipitation Wind Pressure Humidity
00:00 +14°C° 0 mm 2 mps 728 mmHg 95%
01:00 +15°C° 0.1 mm 2 mps 728 mmHg 95%
02:00 +15°C° 0.1 mm 2 mps 728 mmHg 94%
03:00 +15°C° 0.1 mm 2 mps 728 mmHg 94%
04:00 +15°C° 0.1 mm 2 mps 728 mmHg 95%
05:00 +16°C° 0.1 mm 2 mps 728 mmHg 96%
06:00 +16°C° 0.1 mm 2 mps 728 mmHg 96%
07:00 +16°C° 0.2 mm 2 mps 728 mmHg 95%
08:00 +17°C° 0.2 mm 3 mps 728 mmHg 94%
09:00 +18°C° 0.2 mm 3 mps 728 mmHg 93%
10:00 +19°C° 0.6 mm 3 mps 728 mmHg 86%
11:00 +20°C° 0.6 mm 3 mps 728 mmHg 80%
12:00 +21°C° 0.6 mm 3 mps 728 mmHg 74%
13:00 +22°C° 0.4 mm 3 mps 728 mmHg 68%
14:00 +24°C° 0.4 mm 3 mps 728 mmHg 63%
15:00 +24°C° 0.4 mm 3 mps 728 mmHg 57%
16:00 +22°C° 0.1 mm 3 mps 728 mmHg 60%
17:00 +22°C° 0.1 mm 3 mps 728 mmHg 63%
18:00 +21°C° 0.1 mm 3 mps 728 mmHg 66%
19:00 +19°C° 0 mm 2 mps 729 mmHg 75%
20:00 +17°C° 0 mm 2 mps 729 mmHg 84%
21:00 +16°C° 0 mm 1 mps 729 mmHg 93%
22:00 +15°C° 0 mm 1 mps 730 mmHg 95%
23:00 +15°C° 0 mm 1 mps 730 mmHg 97%

Day after tomorrow, 26 July, Monday

Time Temperature Precipitation Wind Pressure Humidity
00:00 +14°C° 0 mm 1 mps 730 mmHg 98%
01:00 +14°C° 0 mm 1 mps 730 mmHg 99%
02:00 +13°C° 0 mm 0 mps 730 mmHg 99%
03:00 +13°C° 0 mm 0 mps 730 mmHg 99%
04:00 +14°C° 0 mm 0 mps 730 mmHg 97%
05:00 +15°C° 0 mm 1 mps 730 mmHg 96%
06:00 +16°C° 0 mm 1 mps 731 mmHg 94%
07:00 +18°C° 0 mm 1 mps 731 mmHg 87%
08:00 +19°C° 0 mm 1 mps 731 mmHg 79%
09:00 +21°C° 0 mm 1 mps 731 mmHg 72%
10:00 +22°C° 0 mm 1 mps 731 mmHg 66%
11:00 +23°C° 0 mm 1 mps 731 mmHg 60%
12:00 +24°C° 0 mm 1 mps 731 mmHg 55%
13:00 +24°C° 0 mm 1 mps 731 mmHg 55%
14:00 +24°C° 0 mm 1 mps 731 mmHg 56%
15:00 +24°C° 0 mm 2 mps 731 mmHg 56%
16:00 +24°C° 0 mm 1 mps 731 mmHg 59%
17:00 +23°C° 0 mm 1 mps 731 mmHg 62%
18:00 +23°C° 0 mm 1 mps 731 mmHg 64%
19:00 +21°C° 0 mm 1 mps 731 mmHg 72%
20:00 +19°C° 0 mm 1 mps 731 mmHg 80%
21:00 +16°C° 0 mm 1 mps 731 mmHg 89%
22:00 +16°C° 0 mm 1 mps 731 mmHg 91%
23:00 +16°C° 0 mm 1 mps 731 mmHg 93%

27 July, Tuesday

Time Temperature Precipitation Wind Pressure Humidity
00:00 +14°C° 0 mm 0 mps 731 mmHg 96%
01:00 +14°C° 0 mm 0 mps 731 mmHg 96%
02:00 +14°C° 0 mm 0 mps 731 mmHg 96%
03:00 +14°C° 0 mm 0 mps 731 mmHg 96%
04:00 +15°C° 0 mm 0 mps 731 mmHg 94%
05:00 +15°C° 0 mm 0 mps 731 mmHg 93%
06:00 +15°C° 0 mm 0 mps 731 mmHg 91%
07:00 +19°C° 0 mm 1 mps 731 mmHg 84%
08:00 +20°C° 0 mm 1 mps 731 mmHg 76%
09:00 +20°C° 0 mm 2 mps 732 mmHg 69%
10:00 +21°C° 0 mm 2 mps 732 mmHg 63%
11:00 +24°C° 0 mm 2 mps 732 mmHg 58%
12:00 +25°C° 0 mm 2 mps 732 mmHg 52%
13:00 +24°C° 0.2 mm 2 mps 732 mmHg 55%
14:00 +24°C° 0.2 mm 2 mps 731 mmHg 57%
15:00 +24°C° 0.2 mm 2 mps 731 mmHg 60%
16:00 +24°C° 0.1 mm 2 mps 731 mmHg 60%
17:00 +24°C° 0.1 mm 2 mps 731 mmHg 60%
18:00 +23°C° 0.1 mm 2 mps 731 mmHg 61%
19:00 +21°C° 0 mm 1 mps 732 mmHg 71%
20:00 +19°C° 0 mm 1 mps 732 mmHg 81%
21:00 +15°C° 0 mm 0 mps 732 mmHg 91%
22:00 +14°C° 0 mm 0 mps 732 mmHg 93%
23:00 +14°C° 0 mm 0 mps 732 mmHg 95%

28 July, Wednesday

Time Temperature Precipitation Wind Pressure Humidity
00:00 +13°C° 0 mm 0 mps 732 mmHg 97%
01:00 +13°C° 0 mm 0 mps 732 mmHg 96%
02:00 +13°C° 0 mm 0 mps 731 mmHg 96%
03:00 +13°C° 0 mm 0 mps 731 mmHg 95%
04:00 +14°C° 0 mm 0 mps 731 mmHg 94%
05:00 +14°C° 0 mm 0 mps 731 mmHg 92%
06:00 +15°C° 0 mm 0 mps 732 mmHg 91%
07:00 +16°C° 0.3 mm 0 mps 732 mmHg 88%
08:00 +17°C° 0.3 mm 0 mps 732 mmHg 84%
09:00 +18°C° 0.3 mm 0 mps 732 mmHg 81%
10:00 +21°C° 0 mm 1 mps 732 mmHg 73%
11:00 +22°C° 0 mm 1 mps 732 mmHg 66%
12:00 +24°C° 0 mm 1 mps 733 mmHg 58%
13:00 +24°C° 0 mm 1 mps 733 mmHg 59%
14:00 +23°C° 0 mm 1 mps 733 mmHg 60%
15:00 +23°C° 0 mm 1 mps 732 mmHg 61%
16:00 +23°C° 0 mm 1 mps 732 mmHg 63%
17:00 +23°C° 0 mm 1 mps 732 mmHg 65%
18:00 +23°C° 0 mm 1 mps 732 mmHg 67%
19:00 +21°C° 0 mm 1 mps 732 mmHg 74%
20:00 +19°C° 0 mm 1 mps 733 mmHg 80%
21:00 +16°C° 0 mm 1 mps 733 mmHg 87%
22:00 +15°C° 0 mm 1 mps 733 mmHg 89%
23:00 +14°C° 0 mm 1 mps 733 mmHg 91%

29 July, Thursday

Time Temperature Precipitation Wind Pressure Humidity
00:00 +12°C° 0 mm 0 mps 733 mmHg 93%
01:00 +12°C° 0 mm 0 mps 732 mmHg 94%
02:00 +12°C° 0 mm 0 mps 732 mmHg 95%
03:00 +11°C° 0 mm 0 mps 732 mmHg 96%
04:00 +12°C° 0 mm 0 mps 732 mmHg 92%
05:00 +13°C° 0 mm 0 mps 732 mmHg 89%
06:00 +13°C° 0 mm 0 mps 732 mmHg 85%
07:00 +16°C° 0 mm 0 mps 732 mmHg 76%
08:00 +18°C° 0 mm 0 mps 732 mmHg 66%
09:00 +23°C° 0 mm 1 mps 732 mmHg 56%
10:00 +24°C° 0 mm 1 mps 732 mmHg 51%
11:00 +25°C° 0 mm 1 mps 731 mmHg 45%
12:00 +27°C° 0 mm 2 mps 731 mmHg 40%
13:00 +27°C° 0 mm 2 mps 731 mmHg 39%
14:00 +27°C° 0 mm 2 mps 731 mmHg 39%
15:00 +28°C° 0 mm 3 mps 731 mmHg 38%
16:00 +26°C° 0 mm 3 mps 731 mmHg 44%
17:00 +25°C° 0 mm 3 mps 731 mmHg 50%
18:00 +24°C° 0 mm 3 mps 731 mmHg 55%
19:00 +21°C° 0 mm 2 mps 731 mmHg 65%
20:00 +18°C° 0 mm 2 mps 731 mmHg 74%
21:00 +16°C° 0 mm 2 mps 731 mmHg 83%
22:00 +15°C° 0 mm 1 mps 731 mmHg 88%
23:00 +14°C° 0 mm 1 mps 731 mmHg 93%
Show more